GW6783 Weather Reports


Display with metric or nautical units.
time (UTC)temp
F
wind
direction
speed
MPH
gust
MPH
rain 1hr
in
rain 24hr
in
rain mn
in
humidity
%
barometer
mb
20260506221548 45 355 2.0 8.0 0.00 0.72 0.64 97 1006.3
20260506221047 44 355 3.0 8.0 0.00 0.72 0.64 97 1006.4
20260506220545 44 355 3.0 8.0 0.00 0.72 0.64 97 1006.4
20260506220049 45 352 2.0 10.0 0.00 0.72 0.64 97 1006.6
20260506215546 45 352 2.0 10.0 0.00 0.72 0.64 97 1006.6
20260506215049 45 352 3.0 10.0 0.00 0.72 0.64 97 1006.5
20260506214548 45 0 2.0 8.0 0.01 0.72 0.64 97 1006.5
20260506214046 44 355 3.0 10.0 0.01 0.72 0.64 97 1006.4
20260506213547 44 355 3.0 10.0 0.01 0.72 0.64 97 1006.4
20260506213046 44 342 3.0 10.0 0.02 0.72 0.64 97 1006.4
20260506212545 44 344 3.0 10.0 0.02 0.72 0.64 97 1006.3
20260506212045 44 344 3.0 10.0 0.02 0.72 0.64 97 1006.1
20260506211545 44 344 3.0 9.0 0.02 0.72 0.64 97 1006.3
20260506211043 44 345 3.0 9.0 0.02 0.72 0.64 97 1006.2
20260506210544 44 346 3.0 9.0 0.02 0.72 0.64 97 1006.0
20260506210050 44 348 3.0 10.0 0.02 0.72 0.64 97 1006.0
20260506205544 44 348 3.0 12.0 0.02 0.76 0.64 97 1006.0
20260506205045 44 349 4.0 15.0 0.02 0.76 0.64 97 1006.0
20260506204555 44 341 5.0 15.0 0.01 0.75 0.63 97 1006.1
20260506204046 44 337 3.0 10.0 0.01 0.75 0.63 97 1006.2
20260506203544 44 337 2.0 10.0 0.01 0.75 0.63 97 1006.2
20260506203053 44 338 3.0 10.0 0.00 0.74 0.62 97 1006.1
20260506202548 44 338 3.0 9.0 0.00 0.74 0.62 97 1006.3
20260506202045 44 342 3.0 9.0 0.00 0.74 0.62 97 1006.2
20260506201557 44 330 3.0 8.0 0.01 0.74 0.62 97 1006.3
20260506201043 44 328 2.0 8.0 0.01 0.74 0.62 97 1006.2
20260506200547 44 331 3.0 10.0 0.01 0.74 0.62 97 1006.1
20260506200105 44 330 3.0 10.0 0.02 0.74 0.62 97 1006.2
20260506195547 44 326 2.0 8.0 0.03 0.74 0.62 97 1006.2
20260506195045 44 327 2.0 8.0 0.03 0.74 0.62 97 1006.1
20260506194557 44 328 2.0 9.0 0.04 0.74 0.62 97 1006.0
20260506194044 44 325 3.0 9.0 0.04 0.74 0.62 96 1006.1
20260506193545 44 323 3.0 10.0 0.04 0.74 0.62 97 1006.0
20260506193048 44 323 3.0 12.0 0.04 0.74 0.62 96 1006.1
20260506192545 44 325 5.0 12.0 0.04 0.74 0.62 96 1005.9
20260506192048 44 342 3.0 9.0 0.04 0.74 0.62 97 1006.0
20260506191547 45 342 3.0 9.0 0.04 0.73 0.61 97 1006.0
20260506191046 45 343 2.0 6.0 0.04 0.73 0.61 97 1005.9
20260506190545 45 344 1.0 6.0 0.04 0.73 0.61 97 1006.0
20260506190055 45 345 2.0 9.0 0.03 0.72 0.60 97 1006.1
20260506185545 44 345 2.0 9.0 0.02 0.71 0.58 97 1006.0
20260506185049 44 345 3.0 12.0 0.01 0.70 0.58 97 1006.0
20260506184602 44 344 3.0 12.0 0.02 0.70 0.58 97 1006.0
20260506184045 44 336 4.0 12.0 0.02 0.70 0.58 97 1006.2
20260506183545 44 336 3.0 10.0 0.03 0.70 0.58 97 1006.1
20260506183103 44 336 3.0 9.0 0.03 0.70 0.58 97 1006.2
20260506182544 44 334 4.0 13.0 0.04 0.70 0.58 97 1006.2
20260506182044 44 340 4.0 13.0 0.05 0.70 0.58 97 1006.5
20260506181601 44 340 3.0 8.0 0.05 0.69 0.57 97 1006.4
20260506181043 44 340 3.0 10.0 0.06 0.69 0.57 97 1006.5
20260506180550 44 340 3.0 10.0 0.06 0.69 0.57 97 1006.5
20260506180104 44 341 3.0 10.0 0.06 0.69 0.57 97 1006.6
20260506175547 44 336 2.0 9.0 0.07 0.69 0.57 97 1006.7
20260506175046 44 334 3.0 9.0 0.08 0.69 0.57 97 1006.7
20260506174553 43 334 3.0 9.0 0.07 0.68 0.56 97 1006.7
20260506174042 43 333 3.0 10.0 0.07 0.68 0.56 97 1007.0
20260506173547 43 334 3.0 10.0 0.07 0.67 0.55 97 1006.9
20260506173054 43 333 3.0 10.0 0.07 0.67 0.55 97 1007.1
20260506172544 43 338 3.0 10.0 0.06 0.66 0.54 97 1007.0
20260506172045 43 338 3.0 9.0 0.06 0.65 0.52 96 1007.1
20260506171549 43 339 3.0 9.0 0.05 0.64 0.52 96 1007.1
20260506171045 43 346 3.0 10.0 0.05 0.63 0.51 96 1007.1
20260506170545 43 350 3.0 10.0 0.06 0.63 0.51 96 1007.0
20260506170051 43 351 3.0 10.0 0.05 0.62 0.50 96 1006.9
20260506165543 43 340 3.0 10.0 0.06 0.62 0.50 96 1007.1
20260506165043 43 342 3.0 10.0 0.05 0.61 0.49 96 1007.1
20260506164557 43 334 3.0 8.0 0.06 0.61 0.49 96 1006.9
20260506164042 43 333 3.0 9.0 0.06 0.61 0.49 96 1007.1
20260506163545 43 335 3.0 10.0 0.06 0.60 0.48 96 1007.1
20260506163054 43 333 3.0 13.0 0.07 0.60 0.48 96 1007.2
20260506162545 43 336 4.0 13.0 0.08 0.60 0.48 96 1007.2
20260506162045 43 338 4.0 11.0 0.07 0.58 0.47 96 1007.2
20260506161602 43 340 4.0 11.0 0.08 0.58 0.47 95 1007.3
20260506161043 43 342 4.0 11.0 0.08 0.58 0.46 95 1007.4
20260506160545 43 340 3.0 10.0 0.08 0.57 0.45 95 1007.5
20260506160057 43 340 4.0 11.0 0.08 0.57 0.45 95 1007.4
20260506155544 43 338 4.0 12.0 0.08 0.56 0.44 95 1007.6
20260506155048 43 336 4.0 12.0 0.08 0.56 0.44 95 1007.6
20260506154556 43 342 4.0 12.0 0.08 0.55 0.43 95 1007.5
20260506154046 43 339 4.0 13.0 0.09 0.55 0.43 95 1007.6
20260506153543 43 348 3.0 13.0 0.08 0.54 0.42 95 1007.6
20260506153050 43 326 4.0 13.0 0.08 0.52 0.41 94 1007.6
20260506152545 43 329 3.0 12.0 0.08 0.52 0.40 94 1007.7
20260506152047 43 323 4.0 12.0 0.08 0.52 0.40 94 1007.5
20260506151603 43 335 3.0 12.0 0.08 0.51 0.39 94 1007.6
20260506151043 44 338 3.0 9.0 0.07 0.50 0.38 94 1007.6
20260506150543 44 329 4.0 9.0 0.07 0.49 0.37 94 1007.6
20260506150047 44 328 3.0 10.0 0.07 0.49 0.37 94 1007.4
20260506145543 44 332 3.0 10.0 0.07 0.48 0.36 94 1007.3
20260506145045 44 328 3.0 12.0 0.07 0.48 0.36 94 1007.6
20260506144557 44 342 3.0 12.0 0.07 0.47 0.35 94 1007.2
20260506144043 44 343 2.0 9.0 0.06 0.46 0.34 94 1007.1
20260506143543 44 343 2.0 10.0 0.07 0.46 0.34 94 1007.3
20260506143055 44 346 3.0 10.0 0.06 0.45 0.33 94 1007.2
20260506142543 44 348 3.0 10.0 0.05 0.44 0.32 93 1007.3
20260506142042 44 351 3.0 10.0 0.06 0.44 0.32 93 1007.3
20260506141558 44 348 2.0 12.0 0.05 0.43 0.31 93 1007.3
20260506141044 44 347 3.0 12.0 0.05 0.43 0.31 93 1007.2
20260506140544 44 342 3.0 10.0 0.04 0.42 0.30 93 1007.2
20260506140104 44 339 3.0 11.0 0.05 0.42 0.30 93 1007.3
20260506135543 44 336 3.0 11.0 0.04 0.41 0.29 93 1007.3
20260506135046 44 334 3.0 12.0 0.04 0.41 0.29 93 1007.5
20260506134550 44 339 3.0 12.0 0.03 0.40 0.28 93 1007.2
20260506134043 44 336 4.0 12.0 0.04 0.40 0.28 93 1007.3
20260506133545 44 333 3.0 12.0 0.03 0.39 0.27 93 1007.5
20260506133052 44 336 3.0 12.0 0.04 0.39 0.27 93 1007.5
20260506132544 44 340 4.0 12.0 0.05 0.39 0.27 93 1007.3
20260506132045 45 343 4.0 12.0 0.05 0.38 0.26 93 1007.3
20260506131554 45 339 5.0 12.0 0.06 0.38 0.26 93 1007.3
20260506131044 45 338 3.0 10.0 0.06 0.38 0.26 94 1007.3
20260506130543 45 340 3.0 10.0 0.06 0.38 0.26 94 1007.2
20260506130108 45 339 3.0 11.0 0.06 0.37 0.25 93 1007.4
20260506125544 45 333 4.0 11.0 0.06 0.37 0.25 93 1007.6
20260506125042 45 324 3.0 11.0 0.06 0.37 0.25 93 1007.7
20260506124550 45 328 3.0 10.0 0.07 0.37 0.25 93 1007.7
20260506124042 45 330 3.0 11.0 0.06 0.36 0.24 92 1007.8
20260506123542 45 318 4.0 17.0 0.06 0.36 0.24 92 1007.7
20260506123057 45 284 6.0 18.0 0.05 0.35 0.23 91 1007.9
20260506122542 45 26 8.0 18.0 0.04 0.34 0.22 90 1006.5
20260506122042 45 281 8.0 15.0 0.03 0.33 0.21 90 1008.4
20260506121553 45 309 9.0 14.0 0.02 0.32 0.20 89 1008.3
20260506121045 46 360 4.0 10.0 0.02 0.32 0.20 89 1007.4
20260506120545 46 350 3.0 13.0 0.02 0.32 0.20 89 1007.9
20260506120048 46 352 3.0 13.0 0.02 0.31 0.19 88 1007.6
20260506115545 46 355 4.0 10.0 0.02 0.31 0.19 88 1007.7
20260506115043 47 360 2.0 8.0 0.02 0.31 0.19 89 1007.8
20260506114548 47 360 3.0 10.0 0.01 0.30 0.18 89 1007.9
20260506114044 47 5 3.0 10.0 0.01 0.30 0.18 89 1007.8
20260506113544 47 5 5.0 10.0 0.01 0.30 0.18 89 1007.9
20260506113048 47 14 3.0 8.0 0.01 0.30 0.18 89 1007.9
20260506112546 47 16 3.0 8.0 0.01 0.30 0.18 88 1007.5
20260506112042 47 17 3.0 8.0 0.01 0.30 0.18 87 1007.8
20260506111553 47 18 2.0 6.0 0.01 0.30 0.18 86 1007.7
20260506111045 47 24 2.0 5.0 0.01 0.30 0.18 85 1007.5
20260506110542 47 24 2.0 6.0 0.01 0.30 0.18 84 1007.9
20260506110100 47 24 3.0 10.0 0.00 0.29 0.17 84 1007.6
20260506105545 47 24 4.0 11.0 0.00 0.29 0.17 84 1007.4
20260506105048 47 26 6.0 15.0 0.00 0.29 0.17 83 1007.2
20260506104553 47 30 4.0 15.0 0.00 0.29 0.17 84 1007.0
20260506104044 47 47 6.0 15.0 0.00 0.29 0.17 85 1007.0
20260506103544 48 25 6.0 11.0 0.01 0.29 0.17 86 1007.0
20260506103049 48 355 5.0 12.0 0.01 0.29 0.17 87 1007.3
20260506102546 48 355 5.0 12.0 0.04 0.29 0.17 87 1007.3
20260506102045 48 352 5.0 14.0 0.04 0.29 0.17 87 1007.3
20260506101556 48 352 6.0 14.0 0.04 0.29 0.17 88 1007.0
20260506101045 49 350 6.0 14.0 0.04 0.29 0.17 89 1007.2
20260506100542 49 9 6.0 13.0 0.04 0.29 0.17 89 1007.1
20260506100049 49 12 5.0 14.0 0.04 0.29 0.17 91 1007.0
20260506095547 49 22 6.0 14.0 0.04 0.29 0.17 90 1006.6
20260506095045 50 32 5.0 14.0 0.04 0.29 0.17 90 1006.8
20260506094555 50 19 4.0 14.0 0.04 0.29 0.17 90 1007.3
20260506094044 50 46 6.0 14.0 0.04 0.29 0.17 91 1007.3
20260506093547 50 42 7.0 14.0 0.03 0.28 0.16 91 1006.8
20260506093054 51 53 6.0 11.0 0.02 0.27 0.15 91 1006.7
20260506092545 51 360 3.0 11.0 0.00 0.25 0.13 91 1008.1
20260506092045 51 5 4.0 13.0 0.00 0.25 0.13 91 1007.1
20260506091548 51 20 8.0 13.0 0.00 0.25 0.13 91 1006.7
20260506091047 51 56 4.0 12.0 0.02 0.25 0.13 91 1006.5
20260506090548 51 38 4.0 14.0 0.04 0.25 0.13 91 1007.4
20260506090051 51 45 6.0 14.0 0.04 0.25 0.13 91 1006.9
20260506085544 51 31 4.0 15.0 0.04 0.25 0.13 91 1007.5
20260506085044 51 38 4.0 15.0 0.04 0.25 0.13 91 1007.0
20260506084552 51 43 6.0 15.0 0.04 0.25 0.13 91 1006.8
20260506084044 51 28 6.0 12.0 0.05 0.25 0.13 91 1006.9
20260506083542 52 41 4.0 12.0 0.07 0.25 0.13 91 1007.0
20260506083050 52 30 6.0 12.0 0.08 0.25 0.13 91 1007.3
20260506082547 52 32 5.0 14.0 0.08 0.25 0.13 91 1007.0
20260506082051 52 32 5.0 14.0 0.08 0.25 0.13 91 1007.0
20260506081549 52 35 5.0 12.0 0.08 0.25 0.13 90 1007.0
20260506081045 52 43 4.0 12.0 0.06 0.23 0.11 90 1007.0
20260506080545 52 18 4.0 12.0 0.04 0.21 0.09 90 1007.9
20260506073050 54 23 5.0 12.0 0.00 0.17 0.05 91 1007.4
20260506072542 54 29 4.0 12.0 0.00 0.17 0.05 91 1006.8
20260506072048 54 36 5.0 11.0 0.00 0.17 0.05 92 1006.6
20260506071609 54 40 5.0 11.0 0.00 0.17 0.05 93 1006.8
20260506071042 54 44 3.0 9.0 0.00 0.17 0.05 93 1007.0
20260506070545 54 44 3.0 9.0 0.00 0.17 0.05 94 1006.8
20260506062042 54 92 2.0 6.0 0.01 0.17 0.05 94 1006.9
20260506061547 54 92 1.0 4.0 0.01 0.17 0.05 93 1006.6
20260506061043 54 92 1.0 3.0 0.01 0.17 0.05 93 1006.6
20260506060546 54 0 0.0 2.0 0.01 0.17 0.05 92 1006.8
20260506051048 55 92 3.0 7.0 0.04 0.16 0.04 92 1007.0
20260506050545 55 93 3.0 6.0 0.04 0.16 0.04 92 1006.9
20260506045044 55 94 2.0 4.0 0.03 0.14 0.02 90 1007.6
20260506044549 55 94 1.0 4.0 0.02 0.13 0.01 89 1007.3
20260506044042 55 94 2.0 6.0 0.02 0.13 0.01 89 1007.2
20260506043547 55 94 2.0 6.0 0.02 0.13 0.01 88 1006.8
20260506043050 55 94 3.0 6.0 0.02 0.13 0.01 88 1006.5
20260506042544 55 94 1.0 9.0 0.03 0.13 0.01 89 1006.5
20260506042045 55 0 3.0 9.0 0.04 0.13 0.01 89 1006.3
20260506041600 55 92 5.0 8.0 0.04 0.13 0.01 89 1006.0
20260506041044 55 78 1.0 7.0 0.03 0.12 0.00 90 1006.8
20260506040542 55 78 2.0 9.0 0.03 0.12 0.00 90 1006.7
20260506040049 55 76 4.0 9.0 0.04 0.12 0.00 90 1006.2
20260506035547 55 95 5.0 9.0 0.05 0.12 0.12 90 1006.2
20260506035047 55 5 3.0 5.0 0.04 0.11 0.11 91 1006.5
20260506034555 55 338 2.0 4.0 0.05 0.11 0.11 91 1006.7
20260506034044 55 337 2.0 4.0 0.05 0.11 0.11 90 1006.5
20260506033549 55 336 2.0 4.0 0.05 0.11 0.11 89 1006.6
20260506033055 56 335 1.0 3.0 0.06 0.11 0.11 88 1006.4
20260506032545 56 335 2.0 3.0 0.05 0.09 0.09 87 1006.5
20260506032045 56 335 1.0 3.0 0.05 0.09 0.09 86 1006.4
20260506031558 57 335 2.0 4.0 0.05 0.09 0.09 83 1005.9
20260506031045 57 335 1.0 4.0 0.05 0.09 0.09 81 1006.2
20260506030545 58 335 2.0 3.0 0.05 0.09 0.09 80 1006.2
20260506030046 58 335 1.0 5.0 0.04 0.08 0.08 78 1006.2
20260506025548 59 335 1.0 6.0 0.03 0.07 0.07 77 1006.1
20260506025044 59 335 2.0 8.0 0.03 0.07 0.07 75 1006.1
20260506024552 59 335 3.0 10.0 0.02 0.06 0.06 73 1006.4
20260506024045 60 345 4.0 14.0 0.02 0.06 0.06 72 1005.9
20260506023547 61 345 4.0 14.0 0.02 0.06 0.06 73 1005.8
20260506023053 62 327 5.0 14.0 0.01 0.05 0.05 73 1005.7
20260506022545 62 311 4.0 10.0 0.00 0.04 0.04 73 1005.5
20260506022045 62 126 0.0 6.0 0.00 0.04 0.04 72 1005.4
20260506021555 62 126 0.0 6.0 0.00 0.04 0.04 72 1005.2
20260506021045 62 126 3.0 6.0 0.00 0.04 0.04 71 1005.1
20260506020544 62 126 1.0 3.0 0.00 0.04 0.04 73 1005.0
20260506020048 62 126 1.0 6.0 0.00 0.04 0.04 73 1004.7
20260506015547 62 126 1.0 6.0 0.00 0.04 0.04 73 1004.5
20260506015044 62 126 0.0 4.0 0.00 0.04 0.04 72 1004.7
20260506014557 63 126 1.0 4.0 0.00 0.04 0.04 71 1004.7
20260506014044 63 126 2.0 4.0 0.00 0.04 0.04 70 1004.8
20260506013547 63 126 0.0 2.0 0.00 0.04 0.04 70 1004.8
20260506013049 63 126 1.0 2.0 0.00 0.04 0.04 71 1004.7
20260506012545 63 126 0.0 2.0 0.00 0.04 0.04 71 1005.0
20260506012044 63 126 1.0 4.0 0.00 0.04 0.04 70 1004.8
20260506011547 63 126 2.0 4.0 0.00 0.04 0.04 70 1004.8
20260506011045 63 126 2.0 4.0 0.00 0.04 0.04 70 1004.7
20260506010546 63 0 1.0 4.0 0.00 0.04 0.04 70 1004.0
20260506010050 63 126 2.0 6.0 0.00 0.04 0.04 69 1003.9
20260506005545 63 126 2.0 6.0 0.00 0.04 0.04 70 1003.9
20260506005044 63 126 2.0 7.0 0.00 0.04 0.04 69 1003.9
20260506004550 63 126 2.0 7.0 0.00 0.04 0.04 70 1003.9
20260506004044 63 126 2.0 8.0 0.00 0.04 0.04 70 1003.7
20260506003544 63 126 2.0 10.0 0.00 0.04 0.04 70 1003.7
20260506003053 63 126 4.0 14.0 0.00 0.04 0.04 70 1003.8
20260506002547 64 122 5.0 14.0 0.00 0.04 0.04 70 1003.6
20260506002044 64 124 5.0 14.0 0.00 0.04 0.04 70 1003.6
20260506001614 64 127 4.0 9.0 0.00 0.04 0.04 71 1003.6
20260506001045 64 123 2.0 6.0 0.00 0.04 0.04 71 1003.5
20260506000544 64 123 2.0 7.0 0.00 0.04 0.04 71 1003.4
20260506000054 64 123 3.0 10.0 0.00 0.04 0.04 71 1003.4
20260505235546 64 123 2.0 10.0 0.00 0.04 0.04 70 1003.4
20260505235048 65 142 4.0 8.0 0.00 0.04 0.04 70 1003.1
20260505234552 65 157 4.0 6.0 0.00 0.04 0.04 68 1003.2
20260505234047 65 162 3.0 6.0 0.00 0.04 0.04 67 1003.2
20260505233548 66 165 2.0 6.0 0.00 0.04 0.04 66 1003.1
20260505233054 66 166 1.0 6.0 0.00 0.04 0.04 65 1003.4
20260505232544 66 165 1.0 10.0 0.00 0.04 0.04 65 1003.3
20260505232047 66 165 4.0 10.0 0.00 0.04 0.04 64 1003.3
20260505231554 66 167 5.0 10.0 0.00 0.04 0.04 63 1003.2
20260505231046 66 168 3.0 11.0 0.00 0.04 0.04 64 1003.2
20260505230545 67 167 6.0 11.0 0.00 0.04 0.04 63 1003.2
20260505230051 67 168 5.0 10.0 0.00 0.04 0.04 62 1002.9
20260505225547 66 171 3.0 13.0 0.00 0.04 0.04 64 1002.9
20260505225045 66 173 6.0 13.0 0.00 0.04 0.04 63 1003.0
20260505224552 66 157 5.0 11.0 0.00 0.04 0.04 64 1002.9
20260505224044 66 142 5.0 11.0 0.00 0.04 0.04 65 1002.9
20260505223544 67 161 5.0 12.0 0.00 0.04 0.04 65 1002.9
20260505223057 66 161 5.0 12.0 0.00 0.04 0.04 65 1003.0
20260505222544 66 169 6.0 11.0 0.00 0.04 0.04 67 1002.8
20260505222044 66 174 6.0 11.0 0.00 0.04 0.04 68 1002.7